Location: doobydoo
(53.3403°N, 2.6908°W)
Time: 20:03:47
(UTC+00:00)

ISS - Pass Details

Date: 27 November 2021
Orbit: 413 x 422 km, 51.6° (Epoch: 18 January)

Event Time Altitude Azimuth Distance (km) Brightness Sun altitude
Rises 17:26:50 0° 248° (WSW) 2,382 2.2 -12.4°
Reaches altitude 10° 17:28:58 10° 244° (WSW) 1,516 0.5 -12.7°
Maximum altitude 17:32:17 53° 166° (SSE) 530 -3.3 -13.1°
Enters shadow 17:34:11 23° 97° (E) 967 -2.5 -13.4°
